Find Starlink 32934

NORAD ID: 63200 Int'l Des: 2025-048 Owner: SPXS Country: US Constellation: starlink operational
LEOCIRCULAR

Current View

Loading 3D Globe...

About Starlink 32934

Starlink 32934 (NORAD 63200) is a starlink constellation satellite (v2 mini) launched Mar 13, 2025 by SPXS of US. It operates in LEO, CIRCULAR orbit with a mass of 730.00 kg.

Upcoming Passes

Passes for default location (London). Set your location on the main map for personalized predictions.

Altitude History

Loading altitude history...

Two-Line Element Set

1 63200U 25048T 26235.41513796 .00013280 00000-0 49146-3 0 9995
2 63200 43.0021 223.4828 0001204 271.6186 88.4528 15.27566146 82592
Epoch: Aug 23, 2026 • Age: 15 hours

Current Status

Altitude 482.4 km
Apogee / Perigee N/A
Velocity 7.63 km/s
Sub-Earth Point 13.84°N, 40.71°E
Launch Date Mar 13, 2025
Age 1.4 years
Type internet

Technical Details

Classification Payload
Mass 730.00 kg
Dry Mass 700.00 kg
Total Mass 730.00 kg
Length 0.30 m
Diameter 4.10 m
Span 29.00 m
Shape Box + pan
Manufacturer SPXS
Bus Type Starlink V2M
Phase Status In Orbit
Owner/State SPXS/US

Most Searched